Location: Miami, Florida
(25.6830°N, 80.1700°W)
Time: 21:52:44
(UTC-04:00)

ISS - Visible Passes

Search period start: 21 June 2018 00:00
Search period end: 01 July 2018 00:00
Orbit: 402 x 406 km, 51.6° (Epoch: 22 June)

Date Brightness Start Highest point End Pass type
(mag) Time Alt. Az. Time Alt. Az. Time Alt. Az.
26 Jun -0.9 05:33:33 10° SE 05:34:21 11° SE 05:35:08 10° ESE visible
28 Jun -2.5 05:23:45 17° S 05:25:47 33° SE 05:28:47 10° ENE visible
29 Jun -1.2 04:33:43 14° ESE 04:33:43 14° ESE 04:35:22 10° E visible
29 Jun -2.4 06:06:56 10° WSW 06:09:46 27° NW 06:12:37 10° NNE visible
30 Jun -3.8 05:16:16 38° WSW 05:17:19 65° NW 05:20:34 10° NE visible
